Temp
56 56 56 56 55 54 52 47 42 50 53 42 42 39 43 48 48 50 48 46 43 42 44 41 38 39 43 47 45 40 41 37 25 34 38 40 39 37 37 26 24 24 26 30
53 54 55 55 55 55 49 44 42 50 50 38 37 42 44 47 44 44 45 44 46 45 43 39 40 40 43 45 44 40 42 30 17 26 34 36 34 36 36 34 30 20 22 26
51 51 51 54 51 50 48 42 36 42 45 44 41 40 40 41 46 46 46 44 46 43 40 42 38 37 41 41 41 46 45 32 28 27 29 33 30 33 34 34 22 23 26 28
50 49 49 49 49 49 46 41 38 41 35 39 40 42 41 39 38 44 45 41 43 40 36 36 36 39 37 40 43 42 42 31 30 31 33 33 31 31 31 29 30 24 31 29
50 49 48 48 48 48 42 37 35 38 38 43 40 40 37 38 40 41 39 39 41 42 39 38 33 38 37 36 36 37 37 25 28 22 31 31 27 31 29 30 31 29 31 29
50 49 48 48 47 46 39 38 39 37 35 36 37 36 36 38 42 41 43 43 39 37 41 39 37 38 37 38 35 33 32 25 18 16 24 21 15 23 29 32 31 30 24 30
51 51 50 50 48 45 40 39 38 34 31 33 35 36 39 37 39 37 37 39 41 36 40 39 36 32 33 34 33 35 27 22 20 11 10 3 27 29 29 29 30 25 22 20
52 52 51 51 50 48 41 40 37 33 28 34 34 36 35 36 37 33 33 33 36 40 35 28 22 19 25 28 31 30 32 27 17 13 7 16 27 28 25 24 23 25 24 24
52 52 52 52 52 51 41 40 41 35 29 29 36 34 34 30 29 28 29 33 35 36 31 24 16 14 18 15 21 27 29 29 23 3 1 3 22 25 29 29 14 19 20 23
52 51 52 52 52 51 42 39 42 35 28 34 34 31 32 34 31 26 27 29 31 34 26 16 14 13 24 13 12 10 11 19 18 16 2 9 22 26 29 11 18 18 21 24
52 52 51 51 52 51 44 39 41 36 28 32 35 37 32 31 30 25 25 28 27 25 22 18 21 13 21 16 20 17 15 11 10 9 9 6 27 26 21 27 28 28 26 28
51 51 52 52 51 51 47 39 41 40 30 30 36 36 37 39 38 29 22 27 22 27 20 15 18 10 10 13 10 25 16 20 12 16 15 28 28 29 33 32 27 28 28 30
51 52 52 51 51 51 49 41 38 38 33 30 31 30 39 40 40 40 27 24 31 29 30 19 17 11 19 8 10 14 22 25 20 18 24 26 30 33 32 31 31 32 32 32
50 50 50 50 50 50 49 41 42 39 34 24 26 34 34 40 40 38 38 35 33 32 30 19 14 11 26 16 21 19 23 23 19 19 27 28 29 30 32 34 31 32 31 31
48 49 49 49 49 49 47 43 42 41 33 25 20 27 33 36 37 37 36 34 30 25 21 15 14 20 23 19 26 18 27 28 23 20 32 31 32 33 33 31 31 31 31 29
48 47 48 48 48 49 41 33 41 43 41 31 20 29 25 32 34 33 32 34 29 26 29 21 23 29 29 21 19 29 33 31 33 31 36 32 34 33 33 31 31 31 29 29
48 48 47 48 48 43 34 33 38 44 41 31 25 22 24 29 29 25 29 31 27 32 29 26 25 26 32 23 17 31 30 31 33 33 31 28 31 30 32 31 32 26 22 21
48 48 48 48 48 45 38 40 43 44 35 32 25 21 20 29 26 27 30 30 31 30 29 26 25 28 27 21 28 31 32 33 31 31 32 34 35 26 27 22 19 16 18 15
47 48 47 38 36 33 35 45 46 42 34 27 26 14 11 28 28 29 28 31 24 30 26 25 28 21 20 25 29 30 31 30 31 26 20 20 23 27 19 16 13 15 15 13
46 38 33 29 33 42 43 36 32 31 31 31 21 15 11 24 22 22 24 26 23 18 22 26 23 22 31 31 27 29 31 31 24 20 20 8 11 15 14 14 13 13 13 11
35 31 30 34 42 34 31 26 26 27 23 26 18 18 15 22 17 20 27 21 22 16 18 18 13 14 28 32 30 32 30 25 21 19 14 12 13 13 12 9 7 6 4 1
34 34 35 34 31 28 22 22 19 22 14 12 21 15 22 18 22 20 22 17 18 14 12 12 7 23 28 24 28 30 18 16 8 7 9 9 9 7 7 3 0 -2 -2 -3
33 29 25 25 23 18 17 13 9 10 9 18 16 17 21 24 25 21 21 17 15 17 15 11 12 24 17 21 10 3 3 3 2 0 0 -0 -2 -3 -5 -5 -7 -7 -9 -14
25 21 17 18 15 12 15 7 9 16 14 15 15 19 18 21 21 23 17 19 17 13 11 6 21 14 16 5 0 1 -1 -1 -1 -4 -4 -5 -6 -8 -9 -10 -13 -12 -13 -16
21 21 14 17 6 -0 -3 -3 7 11 12 22 17 15 23 17 19 21 18 11 11 11 7 9 6 2 3 -1 -4 -3 -5 -6 -9 -11 -9 -8 -9 -11 -17 -22 -22 -20 -20 -20
23 17 11 0 3 -0 -2 -3 5 10 18 20 21 19 19 17 18 15 13 9 6 9 4 -4 -0 1 -0 -2 -3 -5 -5 -7 -10 -12 -12 -12 -13 -14 -18 -26 -26 -24 -23 -21
20 9 -13 -4 -0 6 2 4 10 17 20 17 18 15 14 20 16 13 10 5 2 -2 -1 -4 -3 -3 -5 -6 -7 -7 -9 -12 -10 -13 -14 -16 -20 -27 -23 -17 -19 -25 -25 -25
MSLP
1007.39 1007.96 1008.29 1008.97 1009.67 1010.43 1010.83 1011.85 1012.99 1013.48 1013.33 1013.83 1013.80 1013.50 1013.26 1013.23 1012.94 1012.98 1013.13 1013.33 1013.70 1014.23 1014.75 1015.19 1016.04 1015.77 1015.52 1015.59 1015.92 1016.89 1017.25 1018.24 1019.27 1019.20 1018.78 1018.48 1018.48 1018.80 1019.70 1021.21 1022.19 1022.54 1022.30 1020.27
1008.61 1008.76 1009.01 1009.06 1009.25 1009.94 1011.12 1012.09 1013.56 1013.66 1013.37 1013.22 1013.96 1014.10 1013.45 1013.20 1013.24 1013.25 1013.88 1013.67 1013.77 1014.22 1014.67 1015.15 1015.75 1015.46 1015.64 1015.83 1016.31 1016.47 1017.42 1018.96 1020.14 1020.47 1020.26 1019.59 1019.31 1019.42 1019.92 1020.97 1022.10 1022.32 1022.95 1020.81
1009.83 1009.93 1010.00 1010.13 1010.02 1010.48 1011.10 1012.37 1013.91 1013.97 1013.41 1013.10 1013.20 1013.40 1013.26 1013.21 1013.03 1013.28 1013.59 1013.85 1014.10 1014.52 1015.02 1015.13 1015.81 1016.14 1016.34 1016.48 1016.67 1016.82 1017.18 1018.67 1019.57 1020.17 1020.63 1020.54 1020.68 1020.35 1020.47 1021.16 1022.17 1022.05 1021.22 1021.19
1010.39 1010.75 1010.87 1010.66 1010.64 1011.23 1011.22 1011.69 1012.67 1012.94 1013.21 1013.16 1012.99 1013.09 1012.98 1012.86 1012.99 1013.19 1013.54 1014.07 1014.08 1014.68 1015.40 1015.94 1016.35 1016.66 1017.14 1017.28 1017.34 1017.53 1018.02 1019.41 1020.33 1020.82 1021.07 1021.32 1021.18 1020.81 1021.24 1021.64 1021.64 1021.89 1020.54 1021.13
1010.93 1010.88 1011.16 1011.06 1010.92 1011.34 1011.67 1012.38 1012.40 1013.01 1012.77 1012.50 1012.86 1012.62 1012.55 1012.61 1012.96 1013.21 1013.41 1013.40 1013.96 1014.77 1015.40 1015.96 1016.82 1017.17 1017.59 1017.73 1018.43 1018.49 1019.06 1020.50 1021.61 1022.52 1022.63 1022.70 1022.28 1020.96 1021.48 1021.47 1021.40 1021.61 1021.53 1020.84
1010.73 1011.18 1011.53 1011.24 1011.28 1011.62 1012.48 1012.90 1013.28 1012.95 1012.81 1012.72 1012.56 1011.92 1012.11 1012.24 1012.71 1013.24 1012.97 1013.42 1014.47 1015.42 1015.94 1016.69 1017.33 1017.68 1017.87 1018.04 1018.71 1019.57 1020.35 1021.43 1022.94 1023.94 1024.26 1024.16 1023.68 1021.30 1020.82 1020.50 1020.70 1021.25 1021.79 1021.07
1010.50 1010.83 1011.56 1011.96 1011.46 1011.68 1013.10 1013.25 1013.50 1013.51 1013.31 1013.00 1012.87 1012.57 1012.62 1012.96 1013.26 1013.70 1014.26 1014.18 1014.59 1016.35 1016.39 1017.59 1018.58 1019.33 1019.57 1019.22 1019.73 1020.12 1021.12 1022.40 1023.61 1025.31 1026.26 1025.03 1021.63 1020.63 1020.40 1020.59 1020.87 1021.27 1021.52 1021.73
1010.02 1010.45 1010.99 1011.36 1011.60 1011.86 1012.99 1013.52 1013.44 1013.57 1013.57 1013.01 1013.37 1013.58 1013.27 1013.62 1014.04 1015.06 1015.70 1015.96 1015.76 1016.03 1017.22 1019.21 1020.55 1021.64 1021.64 1021.00 1020.77 1021.13 1021.52 1022.76 1024.93 1026.58 1027.01 1024.51 1021.79 1020.53 1020.46 1020.87 1020.78 1021.15 1021.83 1022.17
1009.80 1010.04 1010.57 1011.07 1011.31 1011.76 1012.34 1013.04 1013.45 1013.51 1014.02 1013.78 1013.64 1013.89 1013.57 1014.17 1015.03 1016.35 1017.15 1017.61 1017.11 1016.62 1018.52 1020.28 1021.80 1022.47 1022.29 1022.17 1022.22 1022.12 1022.60 1023.05 1024.46 1027.17 1027.12 1025.02 1021.70 1020.48 1020.11 1020.53 1021.10 1021.26 1021.66 1022.16
1009.41 1009.82 1010.18 1010.73 1010.95 1011.36 1012.17 1012.92 1013.15 1013.11 1013.99 1013.73 1013.70 1013.61 1014.00 1013.60 1014.72 1016.36 1017.51 1017.60 1018.13 1018.00 1019.65 1021.79 1022.46 1022.68 1022.24 1022.84 1022.72 1023.19 1023.94 1024.48 1024.67 1025.27 1025.96 1024.02 1021.46 1020.93 1020.60 1021.11 1020.70 1020.65 1021.49 1021.56
1008.81 1009.12 1009.68 1010.16 1010.54 1010.90 1011.95 1012.72 1012.43 1013.25 1013.82 1013.95 1013.71 1013.69 1013.73 1013.78 1014.28 1015.59 1017.37 1018.01 1018.79 1019.43 1020.38 1021.46 1022.12 1022.72 1022.34 1022.37 1022.25 1022.14 1022.91 1024.13 1024.58 1025.16 1025.08 1023.07 1020.33 1020.71 1020.72 1019.25 1019.47 1019.86 1020.46 1020.60
1008.19 1008.52 1008.93 1009.41 1009.81 1010.27 1011.22 1012.05 1012.46 1012.71 1013.76 1014.37 1014.38 1013.86 1013.52 1013.09 1012.93 1014.58 1016.62 1016.23 1017.03 1018.11 1019.71 1020.83 1021.55 1022.41 1022.51 1021.76 1022.01 1021.32 1021.77 1021.06 1022.25 1022.20 1020.95 1019.48 1019.35 1018.44 1018.16 1018.30 1018.76 1019.14 1019.48 1019.64
1007.62 1007.98 1008.35 1008.65 1009.21 1009.74 1010.40 1011.22 1012.25 1013.21 1014.10 1014.41 1014.33 1013.52 1012.57 1012.74 1012.68 1012.72 1014.48 1016.36 1016.13 1017.17 1017.50 1019.75 1020.96 1021.63 1021.30 1021.60 1021.20 1020.80 1020.23 1019.84 1020.23 1020.46 1019.12 1018.86 1018.60 1018.08 1017.79 1017.95 1018.21 1018.09 1018.38 1018.57
1007.15 1007.51 1007.82 1008.13 1008.67 1009.21 1009.87 1010.80 1011.66 1012.75 1013.55 1013.89 1013.23 1012.98 1012.54 1012.00 1012.26 1012.78 1013.07 1014.16 1015.59 1016.26 1017.40 1018.95 1020.19 1021.02 1019.56 1019.83 1019.37 1019.54 1018.57 1018.65 1018.26 1018.42 1018.21 1017.85 1017.83 1017.32 1017.12 1017.17 1017.44 1017.71 1017.80 1018.03
1006.66 1007.05 1007.42 1007.79 1008.29 1008.84 1009.52 1010.19 1010.86 1011.51 1012.54 1012.88 1013.41 1013.15 1012.24 1011.96 1012.23 1012.64 1013.32 1014.03 1014.94 1016.23 1017.81 1018.66 1019.28 1019.15 1019.06 1019.02 1018.66 1017.91 1016.80 1016.09 1017.03 1017.05 1016.26 1016.48 1016.32 1016.06 1016.13 1016.63 1016.80 1016.85 1017.20 1017.45
1006.33 1006.77 1007.21 1007.63 1008.12 1008.52 1009.14 1009.89 1010.14 1010.31 1011.10 1012.34 1013.07 1012.30 1011.95 1011.80 1012.13 1012.76 1013.26 1013.75 1014.41 1015.52 1016.36 1017.43 1017.54 1017.18 1017.29 1017.99 1017.45 1015.27 1014.16 1014.89 1015.11 1015.12 1014.72 1015.53 1015.44 1015.46 1015.40 1015.85 1015.93 1016.01 1016.39 1016.63
1006.03 1006.52 1007.21 1007.45 1007.86 1008.40 1009.03 1009.33 1009.16 1009.32 1010.79 1011.48 1012.23 1012.28 1011.96 1011.89 1012.24 1012.96 1013.20 1013.58 1014.14 1014.63 1015.93 1016.32 1016.32 1016.32 1016.27 1016.19 1015.34 1012.34 1013.58 1013.72 1013.83 1014.15 1014.90 1015.33 1014.92 1015.08 1014.70 1015.19 1015.23 1015.64 1015.95 1016.40
1005.58 1006.14 1006.64 1006.95 1007.67 1008.27 1008.52 1008.70 1009.11 1009.48 1010.15 1010.81 1011.32 1011.95 1012.63 1011.89 1012.29 1012.88 1012.90 1013.50 1014.10 1014.21 1014.44 1015.05 1015.12 1015.70 1015.36 1014.18 1011.71 1012.98 1012.86 1012.71 1013.52 1013.47 1013.76 1013.98 1014.01 1014.54 1014.99 1015.26 1015.84 1016.48 1017.01 1017.51
1005.42 1005.92 1006.48 1007.28 1007.69 1007.91 1008.02 1008.23 1008.66 1009.36 1009.88 1010.11 1010.69 1011.62 1012.24 1011.94 1012.19 1012.55 1013.15 1013.08 1013.37 1013.34 1013.40 1013.69 1014.36 1014.10 1012.94 1010.35 1011.34 1011.70 1011.59 1012.11 1012.25 1012.72 1013.64 1014.10 1014.75 1014.69 1015.19 1015.91 1016.53 1017.06 1017.64 1018.24
1005.20 1006.30 1007.12 1007.11 1007.08 1006.94 1007.53 1008.51 1009.01 1009.34 1009.19 1009.82 1010.57 1011.09 1012.30 1012.15 1012.25 1012.66 1013.09 1012.80 1012.70 1012.71 1012.96 1013.06 1012.92 1011.97 1009.27 1010.09 1010.76 1010.70 1010.74 1011.14 1012.23 1013.66 1014.27 1014.85 1015.20 1015.52 1015.99 1016.48 1017.13 1017.76 1018.45 1019.16
1005.48 1006.25 1006.54 1006.65 1006.56 1007.17 1007.90 1008.37 1008.83 1009.23 1009.48 1009.40 1009.70 1010.25 1011.51 1011.89 1011.99 1012.38 1012.37 1012.32 1012.38 1012.75 1012.46 1012.68 1012.23 1010.45 1008.87 1010.00 1010.28 1009.98 1010.55 1011.40 1012.32 1013.10 1013.71 1014.44 1014.98 1015.67 1016.67 1017.77 1018.58 1019.28 1019.93 1020.85
1004.97 1005.65 1006.40 1006.53 1006.41 1007.11 1007.82 1008.08 1008.80 1009.15 1009.36 1009.42 1009.42 1009.75 1009.73 1010.80 1010.92 1011.39 1011.78 1011.88 1012.14 1011.77 1011.94 1012.40 1011.58 1008.91 1009.04 1009.48 1009.58 1010.00 1011.25 1012.30 1013.50 1014.31 1014.95 1015.71 1016.35 1016.93 1017.73 1018.91 1019.95 1020.70 1021.39 1022.05
1005.36 1006.09 1006.63 1006.54 1006.88 1007.37 1008.00 1008.59 1009.11 1009.36 1009.24 1009.02 1009.19 1009.41 1009.32 1010.09 1010.13 1010.54 1010.72 1010.83 1011.10 1011.49 1012.07 1011.60 1010.20 1008.93 1009.10 1009.46 1010.64 1012.00 1012.78 1013.82 1014.83 1015.87 1016.56 1017.36 1018.39 1018.97 1019.66 1020.72 1021.51 1022.23 1023.04 1023.85
1005.35 1006.03 1006.72 1007.21 1007.84 1008.34 1008.41 1008.90 1008.62 1008.03 1007.96 1008.26 1008.55 1008.99 1008.91 1009.09 1009.44 1009.37 1009.61 1009.82 1010.54 1011.35 1011.90 1011.31 1009.82 1009.65 1009.66 1010.76 1011.57 1012.97 1014.42 1015.36 1016.37 1017.51 1018.33 1019.17 1019.99 1020.84 1021.60 1022.34 1022.87 1023.48 1024.16 1024.67
1005.35 1006.15 1007.03 1007.98 1008.50 1009.28 1009.63 1009.34 1009.06 1008.47 1008.01 1007.77 1008.34 1008.51 1008.38 1008.68 1008.67 1008.51 1009.19 1010.30 1010.93 1011.61 1011.82 1011.29 1011.08 1011.66 1011.84 1012.55 1013.47 1014.40 1015.60 1016.84 1018.19 1019.16 1019.76 1020.56 1021.30 1022.09 1023.26 1024.07 1024.19 1024.33 1024.80 1025.24
1005.41 1006.63 1008.14 1009.51 1010.08 1010.80 1010.79 1010.37 1009.93 1008.98 1008.31 1007.83 1007.75 1007.88 1007.76 1007.93 1008.04 1008.52 1009.11 1010.63 1011.71 1011.87 1012.57 1013.00 1013.29 1013.55 1014.39 1014.68 1015.46 1016.77 1017.98 1018.22 1019.00 1019.95 1020.73 1021.62 1022.49 1023.32 1024.17 1024.77 1024.95 1025.05 1025.17 1025.63
1005.87 1008.21 1008.92 1009.98 1010.51 1010.94 1010.94 1010.38 1009.94 1009.16 1008.70 1008.60 1008.46 1008.13 1007.89 1008.25 1008.77 1009.48 1010.08 1011.40 1012.49 1013.59 1014.37 1015.33 1015.45 1015.91 1016.29 1016.80 1017.09 1017.58 1018.63 1020.31 1020.37 1020.74 1021.71 1022.76 1023.74 1024.42 1024.81 1025.40 1025.60 1025.30 1025.17 1025.01
Wind_Speed
11 20 24 24 23 16 7 3 3 3 3 3 1 5 7 5 5 4 3 4 3 7 7 5 6 9 6 8 8 8 4 4 4 6 2 1 3 6 6 6 6 3 3 12
13 10 10 21 25 14 5 5 2 2 1 8 5 3 6 3 5 5 7 7 5 4 7 3 7 6 2 6 8 11 8 1 3 7 6 2 4 3 4 6 4 6 4 7
10 10 8 9 14 10 2 5 4 1 2 1 7 9 8 9 5 4 3 5 4 4 4 2 4 4 2 1 2 3 7 5 9 10 5 3 3 5 4 5 4 4 9 5
10 8 8 10 12 9 2 1 6 5 7 10 8 12 12 14 9 6 11 6 12 8 6 4 6 4 2 3 2 2 4 5 4 3 5 4 5 8 7 8 6 8 16 10
9 9 7 6 9 6 3 2 5 2 1 10 16 14 11 15 11 10 8 7 10 10 12 9 8 7 5 5 2 4 3 1 3 3 3 5 7 14 6 12 13 11 14 20
13 11 7 9 9 7 3 2 2 1 3 2 13 9 10 15 9 1 4 12 7 8 8 4 3 4 4 6 9 6 6 7 4 6 2 3 9 10 17 12 9 9 11 13
16 15 15 12 11 9 3 1 2 2 3 6 5 3 12 9 11 8 1 1 12 4 12 8 7 8 6 4 1 2 6 5 2 3 4 3 6 2 4 10 8 7 2 4
13 17 17 15 14 15 3 1 2 2 1 3 1 6 3 5 5 4 3 2 2 12 7 5 5 5 5 3 5 5 2 5 3 5 5 7 13 7 8 8 9 7 7 4
18 17 16 18 17 18 5 3 2 3 4 5 2 5 6 6 5 3 3 3 5 6 4 4 7 7 4 4 3 5 3 1 6 4 6 11 8 1 5 5 6 7 8 8
17 18 18 16 17 16 5 2 3 4 3 3 4 5 7 6 5 4 4 4 3 4 4 3 5 5 5 6 8 5 4 1 14 10 4 10 9 6 2 6 9 5 7 7
19 18 20 20 19 19 8 3 4 5 3 4 3 3 4 3 2 7 5 5 1 2 4 5 5 4 7 3 3 8 8 9 6 3 4 10 9 6 8 7 3 6 7 8
17 18 19 19 18 18 13 3 3 3 4 3 2 4 4 2 6 8 2 4 6 6 4 1 3 1 1 5 5 3 3 9 9 13 10 4 8 8 13 5 6 7 7 9
19 19 18 20 19 19 16 3 4 4 2 4 1 5 5 4 5 5 8 2 5 4 3 5 3 4 4 5 6 2 4 5 5 5 6 6 8 12 5 7 9 8 10 12
16 17 17 18 21 17 17 4 5 4 2 3 5 4 4 4 6 4 4 7 6 6 3 3 4 4 3 4 4 6 7 6 5 4 6 7 9 9 10 12 10 11 9 12
13 16 12 12 14 17 9 6 6 7 5 3 3 2 6 4 8 10 6 9 7 4 2 3 4 2 3 1 1 4 9 13 6 8 16 13 12 8 8 9 13 14 13 11
15 13 14 12 10 13 3 2 5 10 6 3 3 2 3 6 8 9 8 8 4 4 5 3 3 5 6 5 5 15 18 5 13 15 18 9 13 10 9 10 13 12 10 13
17 15 13 12 12 5 4 3 1 17 8 3 3 4 2 2 4 1 3 4 3 4 3 5 4 4 8 4 9 20 8 12 15 12 7 10 16 11 9 10 14 5 2 2
13 12 12 11 12 11 6 4 5 5 4 3 4 2 2 3 4 3 3 4 4 5 4 2 5 4 4 9 15 10 15 18 10 14 14 19 16 2 8 2 4 5 6 3
13 13 12 1 2 3 2 17 12 4 3 3 3 6 6 2 2 3 1 4 5 4 7 6 7 4 11 10 12 16 19 15 19 5 3 4 10 14 4 6 3 5 4 5
10 5 3 4 5 6 12 4 3 5 4 4 5 3 2 4 2 2 3 2 3 4 4 4 7 11 26 9 8 11 15 16 7 4 9 1 5 8 6 7 2 2 3 4
2 4 3 1 7 3 3 5 6 5 4 5 4 6 6 3 5 4 3 4 4 5 6 8 4 10 18 14 17 18 12 9 9 6 3 4 4 5 7 5 5 5 5 4
6 6 3 1 4 5 5 6 3 5 7 2 7 5 5 3 4 4 5 5 4 7 4 5 5 13 11 10 17 15 6 8 8 4 8 6 7 5 7 7 6 5 6 6
3 2 3 3 2 4 7 9 3 3 4 5 3 2 4 3 3 3 5 7 7 5 6 6 8 7 7 11 5 5 5 7 8 6 7 9 7 6 4 7 5 6 6 3
3 5 6 6 4 4 5 6 5 5 4 6 4 4 4 3 5 4 5 5 4 6 5 9 8 8 8 5 4 7 7 7 9 8 8 8 8 7 6 6 4 5 4 2
3 3 5 5 2 1 2 2 1 2 1 6 3 2 3 2 4 5 3 4 5 5 8 5 2 7 3 3 3 8 9 8 7 4 7 7 7 7 5 3 3 3 2 1
4 3 3 1 4 4 3 2 0 2 1 2 2 3 4 5 4 6 8 7 8 7 5 2 4 4 4 4 7 7 5 7 9 7 6 7 6 6 5 1 1 2 3 2
3 2 2 3 2 5 4 3 3 2 2 2 2 4 5 0 3 4 4 6 3 2 2 3 5 3 4 4 8 9 10 5 7 6 6 5 4 4 4 5 1 1 3 4
Wind_Direction
138 162 156 153 146 135 82 122 131 201 143 114 335 187 169 190 195 55 57 87 140 173 177 166 217 206 212 173 157 158 198 143 179 200 306 301 210 188 164 153 243 246 174 257
73 97 159 160 147 142 130 110 94 291 179 181 187 209 187 206 136 163 192 203 189 188 178 191 208 200 339 161 163 165 178 168 27 348 343 333 202 168 131 93 78 213 195 260
92 82 71 156 84 68 102 125 132 251 253 113 178 178 195 199 203 178 151 180 138 119 213 247 205 168 224 78 177 120 110 159 174 215 186 143 207 182 143 158 155 189 226 290
114 105 88 70 64 33 37 175 162 223 176 205 192 191 181 192 181 189 192 209 194 172 197 197 212 148 131 18 142 122 143 193 159 164 141 182 221 237 166 199 205 206 264 231
157 149 135 97 80 15 69 135 148 140 262 178 188 185 196 193 184 161 203 203 182 185 206 180 193 162 178 190 185 148 32 199 101 300 201 218 256 259 194 215 242 243 253 269
177 167 169 145 122 73 65 55 13 84 120 288 189 196 181 200 154 269 177 198 143 193 207 115 91 76 99 160 159 175 157 138 112 250 57 75 300 230 226 238 211 217 227 241
190 184 180 183 150 100 114 116 115 141 154 171 230 206 197 199 199 187 160 121 187 124 110 94 44 39 30 54 100 122 138 108 96 180 42 253 252 263 237 226 248 201 196 228
203 195 191 187 181 160 123 180 126 122 160 164 267 209 166 103 106 68 90 33 315 141 76 79 60 349 3 313 237 223 173 136 132 169 204 310 288 227 177 177 256 186 189 222
211 204 206 200 192 177 118 153 174 126 109 234 212 189 186 156 137 77 44 2 355 76 86 102 157 198 179 258 290 16 168 62 175 116 171 211 250 234 125 116 285 219 167 214
215 209 206 205 203 195 128 174 159 96 128 246 158 188 202 137 119 108 130 155 49 27 109 124 163 227 173 195 179 177 101 176 215 222 237 281 243 231 131 112 242 195 180 216
213 211 208 211 213 199 153 202 163 131 150 281 210 230 154 93 134 139 176 96 326 79 137 150 179 177 209 152 179 171 156 160 195 134 201 269 181 91 183 206 173 176 198 206
221 219 217 212 210 206 173 155 161 113 112 240 245 270 258 270 178 125 267 141 153 160 115 202 106 175 68 160 228 143 223 190 179 188 203 235 196 198 221 159 183 208 201 215
224 221 224 215 207 200 189 131 127 87 128 285 223 229 246 165 188 164 127 302 160 178 159 151 175 190 125 164 238 147 258 157 214 93 216 221 202 239 240 194 214 216 211 214
219 220 222 220 204 207 194 155 161 136 117 195 277 340 230 212 155 151 127 135 118 109 115 126 144 168 178 197 171 176 198 152 195 275 286 254 244 230 237 252 229 238 226 219
222 219 213 207 206 212 211 168 176 167 164 187 249 285 239 178 168 161 149 138 127 128 95 113 205 182 115 299 102 243 190 223 212 234 245 238 252 242 227 223 236 231 227 240
197 212 211 203 199 196 121 197 184 188 181 190 198 258 230 192 171 173 184 170 118 136 140 180 227 218 152 185 209 241 233 210 224 241 252 243 251 248 246 219 240 232 217 224
192 186 202 204 201 200 161 187 182 179 153 188 206 272 284 187 104 62 111 141 177 145 159 202 182 193 182 194 221 236 215 228 238 237 236 261 250 240 242 227 243 227 209 222
186 189 195 189 208 206 206 140 87 158 162 190 199 227 336 179 149 167 158 144 170 189 188 161 188 150 202 235 237 237 244 249 249 239 216 234 256 218 238 201 138 195 210 163
189 195 199 68 174 182 205 164 170 160 212 209 165 158 223 182 93 108 160 154 195 162 200 198 158 176 222 219 210 221 232 226 240 237 186 208 222 250 216 174 173 194 182 166
175 91 132 208 198 178 126 121 175 203 193 207 200 86 188 134 117 111 126 185 205 184 228 133 203 229 238 222 216 229 232 235 159 176 262 143 251 216 197 199 148 127 118 110
98 157 199 192 163 82 160 190 192 175 207 200 195 165 139 251 137 159 218 183 176 195 221 184 205 247 241 226 234 240 237 193 193 188 140 122 158 183 155 126 96 92 87 80
168 128 92 155 186 172 187 181 144 189 212 253 162 197 165 171 132 129 178 184 190 218 129 148 229 246 240 214 226 239 154 141 132 145 140 119 96 85 112 116 116 106 111 110
77 100 159 150 219 191 193 176 221 170 191 184 174 166 129 134 179 168 178 197 209 106 190 218 225 241 223 220 160 119 107 114 119 105 90 98 98 72 79 109 90 103 102 79
154 161 182 189 185 237 186 182 177 226 137 154 130 124 149 172 177 180 209 197 134 203 203 227 240 221 234 165 113 122 154 129 122 122 119 115 114 100 84 93 116 113 106 93
153 149 204 193 215 25 258 252 16 310 200 135 101 59 146 176 203 199 153 172 214 207 223 230 297 336 338 109 100 125 133 127 118 117 115 117 115 110 100 62 60 84 103 132
166 151 102 334 67 317 3 17 82 270 153 73 81 159 214 205 207 191 197 165 208 231 215 287 320 356 0 99 94 76 76 113 119 108 102 105 108 124 143 163 195 195 180 208
181 178 26 106 120 169 190 154 207 254 65 154 168 218 227 172 225 229 183 203 224 348 13 340 357 13 87 89 92 104 105 106 119 111 99 104 109 102 88 102 293 283 243 228